Year,Month,Day,Hour,Minute,Value (Times are PST for temperature in C)
2008,09,04,00,00,14.80
2008,09,04,00,01,14.80
2008,09,04,00,02,14.80
2008,09,04,00,03,14.80
2008,09,04,00,04,14.80
2008,09,04,00,05,14.80
2008,09,04,00,06,14.80
2008,09,04,00,07,14.80
2008,09,04,00,08,14.80
2008,09,04,00,09,14.70
2008,09,04,00,10,14.70
2008,09,04,00,11,14.70
2008,09,04,00,12,14.70
2008,09,04,00,13,14.70
2008,09,04,00,14,14.70
2008,09,04,00,15,14.70
2008,09,04,00,16,14.70
2008,09,04,00,17,14.70
2008,09,04,00,18,14.70
2008,09,04,00,19,14.70
2008,09,04,00,20,14.70
2008,09,04,00,21,14.70
2008,09,04,00,22,14.70
2008,09,04,00,23,14.60
2008,09,04,00,24,14.70
2008,09,04,00,25,14.60
2008,09,04,00,26,14.60
2008,09,04,00,27,14.60
2008,09,04,00,28,14.60
2008,09,04,00,29,14.60
2008,09,04,00,30,14.60
2008,09,04,00,31,14.60
2008,09,04,00,32,14.60
2008,09,04,00,33,14.60
2008,09,04,00,34,14.60
2008,09,04,00,35,14.60
2008,09,04,00,36,14.60
2008,09,04,00,37,14.60
2008,09,04,00,38,14.60
2008,09,04,00,39,14.50
2008,09,04,00,40,14.50
2008,09,04,00,41,14.50
2008,09,04,00,42,14.50
2008,09,04,00,43,14.50
2008,09,04,00,44,14.50
2008,09,04,00,45,14.50
2008,09,04,00,46,14.40
2008,09,04,00,47,14.40
2008,09,04,00,48,14.40
2008,09,04,00,49,14.40
2008,09,04,00,50,14.40
2008,09,04,00,51,14.40
2008,09,04,00,52,14.40
2008,09,04,00,53,14.40
2008,09,04,00,54,14.40
2008,09,04,00,55,14.40
2008,09,04,00,56,14.40
2008,09,04,00,57,14.40
2008,09,04,00,58,14.40
2008,09,04,00,59,14.40
2008,09,04,01,00,14.40
2008,09,04,01,01,14.40
2008,09,04,01,02,14.40
2008,09,04,01,03,14.40
2008,09,04,01,04,14.40
2008,09,04,01,05,14.30
2008,09,04,01,06,14.30
2008,09,04,01,07,14.30
2008,09,04,01,08,14.30
2008,09,04,01,09,14.30
2008,09,04,01,10,14.30
2008,09,04,01,11,14.30
2008,09,04,01,12,14.30
2008,09,04,01,13,14.30
2008,09,04,01,14,14.30
2008,09,04,01,15,14.30
2008,09,04,01,16,14.30
2008,09,04,01,17,14.30
2008,09,04,01,18,14.30
2008,09,04,01,19,14.30
2008,09,04,01,20,14.20
2008,09,04,01,21,14.20
2008,09,04,01,22,14.30
2008,09,04,01,23,14.30
2008,09,04,01,24,14.20
2008,09,04,01,25,14.20
2008,09,04,01,26,14.20
2008,09,04,01,27,14.20
2008,09,04,01,28,14.20
2008,09,04,01,29,14.20
2008,09,04,01,30,14.20
2008,09,04,01,31,14.20
2008,09,04,01,32,14.20
2008,09,04,01,33,14.20
2008,09,04,01,34,14.10
2008,09,04,01,35,14.10
2008,09,04,01,36,14.10
2008,09,04,01,37,14.10
2008,09,04,01,38,14.10
2008,09,04,01,39,14.00
2008,09,04,01,40,14.00
2008,09,04,01,41,14.00
2008,09,04,01,42,13.90
2008,09,04,01,43,13.90
2008,09,04,01,44,13.90
2008,09,04,01,45,13.90
2008,09,04,01,46,13.90
2008,09,04,01,47,13.80
2008,09,04,01,48,13.80
2008,09,04,01,49,13.80
2008,09,04,01,50,13.80
2008,09,04,01,51,13.70
2008,09,04,01,52,13.70
2008,09,04,01,53,13.70
2008,09,04,01,54,13.70
2008,09,04,01,55,13.60
2008,09,04,01,56,13.60
2008,09,04,01,57,13.60
2008,09,04,01,58,13.50
2008,09,04,01,59,13.50
2008,09,04,02,00,13.50
2008,09,04,02,01,13.40
2008,09,04,02,02,13.40
2008,09,04,02,03,13.40
2008,09,04,02,04,13.30
2008,09,04,02,05,13.30
2008,09,04,02,06,13.30
2008,09,04,02,07,13.20
2008,09,04,02,08,13.20
2008,09,04,02,09,13.20
2008,09,04,02,10,13.10
2008,09,04,02,11,13.10
2008,09,04,02,12,13.10
2008,09,04,02,13,13.00
2008,09,04,02,14,13.00
2008,09,04,02,15,12.90
2008,09,04,02,16,12.90
2008,09,04,02,17,12.90
2008,09,04,02,18,12.80
2008,09,04,02,19,12.80
2008,09,04,02,20,12.80
2008,09,04,02,21,12.80
2008,09,04,02,22,12.70
2008,09,04,02,23,12.70
2008,09,04,02,24,12.70
2008,09,04,02,25,12.70
2008,09,04,02,26,12.60
2008,09,04,02,27,12.60
2008,09,04,02,28,12.60
2008,09,04,02,29,12.60
2008,09,04,02,30,12.60
2008,09,04,02,31,12.50
2008,09,04,02,32,12.50
2008,09,04,02,33,12.50
2008,09,04,02,34,12.40
2008,09,04,02,35,12.40
2008,09,04,02,36,12.40
2008,09,04,02,37,12.40
2008,09,04,02,38,12.30
2008,09,04,02,39,12.30
2008,09,04,02,40,12.30
2008,09,04,02,41,12.30
2008,09,04,02,42,12.30
2008,09,04,02,43,12.20
2008,09,04,02,44,12.20
2008,09,04,02,45,12.20
2008,09,04,02,46,12.20
2008,09,04,02,47,12.20
2008,09,04,02,48,12.20
2008,09,04,02,49,12.20
2008,09,04,02,50,12.20
2008,09,04,02,51,12.20
2008,09,04,02,52,12.20
2008,09,04,02,53,12.10
2008,09,04,02,54,12.10
2008,09,04,02,55,12.10
2008,09,04,02,56,12.00
2008,09,04,02,57,11.90
2008,09,04,02,58,11.90
2008,09,04,02,59,11.90
2008,09,04,03,00,11.90
2008,09,04,03,01,11.90
2008,09,04,03,02,11.80
2008,09,04,03,03,11.80
2008,09,04,03,04,11.80
2008,09,04,03,05,11.80
2008,09,04,03,06,11.70
2008,09,04,03,07,11.70
2008,09,04,03,08,11.70
2008,09,04,03,09,11.70
2008,09,04,03,10,11.70
2008,09,04,03,11,11.70
2008,09,04,03,12,11.60
2008,09,04,03,13,11.60
2008,09,04,03,14,11.60
2008,09,04,03,15,11.60
2008,09,04,03,16,11.60
2008,09,04,03,17,11.50
2008,09,04,03,18,11.50
2008,09,04,03,19,11.50
2008,09,04,03,20,11.40
2008,09,04,03,21,11.40
2008,09,04,03,22,11.40
2008,09,04,03,23,11.40
2008,09,04,03,24,11.40
2008,09,04,03,25,11.40
2008,09,04,03,26,11.30
2008,09,04,03,27,11.30
2008,09,04,03,28,11.30
2008,09,04,03,29,11.30
2008,09,04,03,30,11.30
2008,09,04,03,31,11.30
2008,09,04,03,32,11.30
2008,09,04,03,33,11.30
2008,09,04,03,34,11.30
2008,09,04,03,35,11.20
2008,09,04,03,36,11.20
2008,09,04,03,37,11.20
2008,09,04,03,38,11.20
2008,09,04,03,39,11.20
2008,09,04,03,40,11.20
2008,09,04,03,41,11.20
2008,09,04,03,42,11.10
2008,09,04,03,43,11.10
2008,09,04,03,44,11.10
2008,09,04,03,45,11.10
2008,09,04,03,46,11.10
2008,09,04,03,47,11.10
2008,09,04,03,48,11.10
2008,09,04,03,49,11.10
2008,09,04,03,50,11.10
2008,09,04,03,51,11.10
2008,09,04,03,52,11.10
2008,09,04,03,53,11.00
2008,09,04,03,54,11.00
2008,09,04,03,55,11.00
2008,09,04,03,56,10.90
2008,09,04,03,57,10.90
2008,09,04,03,58,10.90
2008,09,04,03,59,10.90
2008,09,04,04,00,10.90
2008,09,04,04,01,10.90
2008,09,04,04,02,10.90
2008,09,04,04,03,10.90
2008,09,04,04,04,10.90
2008,09,04,04,05,10.90
2008,09,04,04,06,10.90
2008,09,04,04,07,10.90
2008,09,04,04,08,10.90
2008,09,04,04,09,10.90
2008,09,04,04,10,10.90
2008,09,04,04,11,10.80
2008,09,04,04,12,10.80
2008,09,04,04,13,10.80
2008,09,04,04,14,10.80
2008,09,04,04,15,10.80
2008,09,04,04,16,10.80
2008,09,04,04,17,10.80
2008,09,04,04,18,10.80
2008,09,04,04,19,10.80
2008,09,04,04,20,10.80
2008,09,04,04,21,10.80
2008,09,04,04,22,10.80
2008,09,04,04,23,10.70
2008,09,04,04,24,10.70
2008,09,04,04,25,10.70
2008,09,04,04,26,10.70
2008,09,04,04,27,10.70
2008,09,04,04,28,10.70
2008,09,04,04,29,10.70
2008,09,04,04,30,10.60
2008,09,04,04,31,10.60
2008,09,04,04,32,10.60
2008,09,04,04,33,10.60
2008,09,04,04,34,10.60
2008,09,04,04,35,10.60
2008,09,04,04,36,10.60
2008,09,04,04,37,10.60
2008,09,04,04,38,10.60
2008,09,04,04,39,10.50
2008,09,04,04,40,10.50
2008,09,04,04,41,10.50
2008,09,04,04,42,10.40
2008,09,04,04,43,10.40
2008,09,04,04,44,10.40
2008,09,04,04,45,10.40
2008,09,04,04,46,10.40
2008,09,04,04,47,10.40
2008,09,04,04,48,10.30
2008,09,04,04,49,10.30
2008,09,04,04,50,10.30
2008,09,04,04,51,10.30
2008,09,04,04,52,10.30
2008,09,04,04,53,10.30
2008,09,04,04,54,10.30
2008,09,04,04,55,10.30
2008,09,04,04,56,10.30
2008,09,04,04,57,10.30
2008,09,04,04,58,10.30
2008,09,04,04,59,10.30
2008,09,04,05,00,10.30
2008,09,04,05,01,10.30
2008,09,04,05,02,10.30
2008,09,04,05,03,10.30
2008,09,04,05,04,10.30
2008,09,04,05,05,10.30
2008,09,04,05,06,10.30
2008,09,04,05,07,10.30
2008,09,04,05,08,10.30
2008,09,04,05,09,10.30
2008,09,04,05,10,10.30
2008,09,04,05,11,10.30
2008,09,04,05,12,10.30
2008,09,04,05,13,10.30
2008,09,04,05,14,10.30
2008,09,04,05,15,10.30
2008,09,04,05,16,10.30
2008,09,04,05,17,10.30
2008,09,04,05,18,10.30
2008,09,04,05,19,10.30
2008,09,04,05,20,10.30
2008,09,04,05,21,10.30
2008,09,04,05,22,10.20
2008,09,04,05,23,10.20
2008,09,04,05,24,10.20
2008,09,04,05,25,10.20
2008,09,04,05,26,10.20
2008,09,04,05,27,10.20
2008,09,04,05,28,10.20
2008,09,04,05,29,10.20
2008,09,04,05,30,10.20
2008,09,04,05,31,10.20
2008,09,04,05,32,10.20
2008,09,04,05,33,10.10
2008,09,04,05,34,10.10
2008,09,04,05,35,10.10
2008,09,04,05,36,10.10
2008,09,04,05,37,10.10
2008,09,04,05,38,10.10
2008,09,04,05,39,10.10
2008,09,04,05,40,10.10
2008,09,04,05,41,10.10
2008,09,04,05,42,10.10
2008,09,04,05,43,10.10
2008,09,04,05,44,10.10
2008,09,04,05,45,10.10
2008,09,04,05,46,10.10
2008,09,04,05,47,10.10
2008,09,04,05,48,10.10
2008,09,04,05,49,10.10
2008,09,04,05,50,10.10
2008,09,04,05,51,10.10
2008,09,04,05,52,10.10
2008,09,04,05,53,10.10
2008,09,04,05,54,10.10
2008,09,04,05,55,10.10
2008,09,04,05,56,10.10
2008,09,04,05,57,10.10
2008,09,04,05,58,10.10
2008,09,04,05,59,10.10
2008,09,04,06,00,10.10
2008,09,04,06,01,10.10
2008,09,04,06,02,10.10
2008,09,04,06,03,10.10
2008,09,04,06,04,10.00
2008,09,04,06,05,10.00
2008,09,04,06,06,10.00
2008,09,04,06,07,10.00
2008,09,04,06,08,10.00
2008,09,04,06,09,10.00
2008,09,04,06,10,10.00
2008,09,04,06,11,10.10
2008,09,04,06,12,10.10
2008,09,04,06,13,10.10
2008,09,04,06,14,10.10
2008,09,04,06,15,10.10
2008,09,04,06,16,10.00
2008,09,04,06,17,10.00
2008,09,04,06,18,10.00
2008,09,04,06,19,10.00
2008,09,04,06,20,10.00
2008,09,04,06,21,10.00
2008,09,04,06,22,9.90
2008,09,04,06,23,9.90
2008,09,04,06,24,9.90
2008,09,04,06,25,9.90
2008,09,04,06,26,9.90
2008,09,04,06,27,9.90
2008,09,04,06,28,9.80
2008,09,04,06,29,9.80
2008,09,04,06,30,9.80
2008,09,04,06,31,9.80
2008,09,04,06,32,9.80
2008,09,04,06,33,9.80
2008,09,04,06,34,9.80
2008,09,04,06,35,9.70
2008,09,04,06,36,9.70
2008,09,04,06,37,9.70
2008,09,04,06,38,9.70
2008,09,04,06,39,9.70
2008,09,04,06,40,9.70
2008,09,04,06,41,9.80
2008,09,04,06,42,9.80
2008,09,04,06,43,9.80
2008,09,04,06,44,9.70
2008,09,04,06,45,9.70
2008,09,04,06,46,9.70
2008,09,04,06,47,9.70
2008,09,04,06,48,9.70
2008,09,04,06,49,9.70
2008,09,04,06,50,9.80
2008,09,04,06,51,9.70
2008,09,04,06,52,9.70
2008,09,04,06,53,9.70
2008,09,04,06,54,9.70
2008,09,04,06,55,9.70
2008,09,04,06,56,9.70
2008,09,04,06,57,9.70
2008,09,04,06,58,9.70
2008,09,04,06,59,9.70
2008,09,04,07,00,9.70
2008,09,04,07,01,9.60
2008,09,04,07,02,9.60
2008,09,04,07,03,9.60
2008,09,04,07,04,9.60
2008,09,04,07,05,9.60
2008,09,04,07,06,9.60
2008,09,04,07,07,9.60
2008,09,04,07,08,9.60
2008,09,04,07,09,9.70
2008,09,04,07,10,9.70
2008,09,04,07,11,9.70
2008,09,04,07,12,9.70
2008,09,04,07,13,9.70
2008,09,04,07,14,9.70
2008,09,04,07,15,9.70
2008,09,04,07,16,9.70
2008,09,04,07,17,9.70
2008,09,04,07,18,9.70
2008,09,04,07,19,9.70
2008,09,04,07,20,9.70
2008,09,04,07,21,9.70
2008,09,04,07,22,9.70
2008,09,04,07,23,9.70
2008,09,04,07,24,9.60
2008,09,04,07,25,9.60
2008,09,04,07,26,9.60
2008,09,04,07,27,9.60
2008,09,04,07,28,9.70
2008,09,04,07,29,9.70
2008,09,04,07,30,9.70
2008,09,04,07,31,9.70
2008,09,04,07,32,9.70
2008,09,04,07,33,9.70
2008,09,04,07,34,9.70
2008,09,04,07,35,9.70
2008,09,04,07,36,9.70
2008,09,04,07,37,9.70
2008,09,04,07,38,9.80
2008,09,04,07,39,9.80
2008,09,04,07,40,9.80
2008,09,04,07,41,9.80
2008,09,04,07,42,9.80
2008,09,04,07,43,9.90
2008,09,04,07,44,9.90
2008,09,04,07,45,9.90
2008,09,04,07,46,9.90
2008,09,04,07,47,9.90
2008,09,04,07,48,10.00
2008,09,04,07,49,10.00
2008,09,04,07,50,10.00
2008,09,04,07,51,10.00
2008,09,04,07,52,10.00
2008,09,04,07,53,10.10
2008,09,04,07,54,10.10
2008,09,04,07,55,10.10
2008,09,04,07,56,10.10
2008,09,04,07,57,10.20
2008,09,04,07,58,10.20
2008,09,04,07,59,10.20
2008,09,04,08,00,10.20
2008,09,04,08,01,10.30
2008,09,04,08,02,10.30
2008,09,04,08,03,10.30
2008,09,04,08,04,10.30
2008,09,04,08,05,10.40
2008,09,04,08,06,10.40
2008,09,04,08,07,10.40
2008,09,04,08,08,10.50
2008,09,04,08,09,10.60
2008,09,04,08,10,10.60
2008,09,04,08,11,10.70
2008,09,04,08,12,10.70
2008,09,04,08,13,10.80
2008,09,04,08,14,10.90
2008,09,04,08,15,10.90
2008,09,04,08,16,11.00
2008,09,04,08,17,11.10
2008,09,04,08,18,11.20
2008,09,04,08,19,11.30
2008,09,04,08,20,11.30
2008,09,04,08,21,11.40
2008,09,04,08,22,11.40
2008,09,04,08,23,11.50
2008,09,04,08,24,11.50
2008,09,04,08,25,11.60
2008,09,04,08,26,11.70
2008,09,04,08,27,11.80
2008,09,04,08,28,11.80
2008,09,04,08,29,11.90
2008,09,04,08,30,11.90
2008,09,04,08,31,12.00
2008,09,04,08,32,12.10
2008,09,04,08,33,12.10
2008,09,04,08,34,12.20
2008,09,04,08,35,12.20
2008,09,04,08,36,12.20
2008,09,04,08,37,12.30
2008,09,04,08,38,12.40
2008,09,04,08,39,12.50
2008,09,04,08,40,12.60
2008,09,04,08,41,12.70
2008,09,04,08,42,12.80
2008,09,04,08,43,12.90
2008,09,04,08,44,13.00
2008,09,04,08,45,13.10
2008,09,04,08,46,13.30
2008,09,04,08,47,13.40
2008,09,04,08,48,13.60
2008,09,04,08,49,13.70
2008,09,04,08,50,13.80
2008,09,04,08,51,13.90
2008,09,04,08,52,13.90
2008,09,04,08,53,14.00
2008,09,04,08,54,14.10
2008,09,04,08,55,14.20
2008,09,04,08,56,14.30
2008,09,04,08,57,14.40
2008,09,04,08,58,14.50
2008,09,04,08,59,14.50
2008,09,04,09,00,14.60
2008,09,04,09,01,14.60
2008,09,04,09,02,14.70
2008,09,04,09,03,14.70
2008,09,04,09,04,14.70
2008,09,04,09,05,14.80
2008,09,04,09,06,14.80
2008,09,04,09,07,14.80
2008,09,04,09,08,14.80
2008,09,04,09,09,14.80
2008,09,04,09,10,14.80
2008,09,04,09,11,14.90
2008,09,04,09,12,14.90
2008,09,04,09,13,15.00
2008,09,04,09,14,15.00
2008,09,04,09,15,15.00
2008,09,04,09,16,15.00
2008,09,04,09,17,15.00
2008,09,04,09,18,15.10
2008,09,04,09,19,15.20
2008,09,04,09,20,15.30
2008,09,04,09,21,15.30
2008,09,04,09,22,15.50
2008,09,04,09,23,15.60
2008,09,04,09,24,15.70
2008,09,04,09,25,15.80
2008,09,04,09,26,15.90
2008,09,04,09,27,16.00
2008,09,04,09,28,16.00
2008,09,04,09,29,16.10
2008,09,04,09,30,16.20
2008,09,04,09,31,16.30
2008,09,04,09,32,16.40
2008,09,04,09,33,16.40
2008,09,04,09,34,16.50
2008,09,04,09,35,16.50
2008,09,04,09,36,16.60
2008,09,04,09,37,16.70
2008,09,04,09,38,16.70
2008,09,04,09,39,16.80
2008,09,04,09,40,16.90
2008,09,04,09,41,16.90
2008,09,04,09,42,17.00
2008,09,04,09,43,17.10
2008,09,04,09,44,17.10
2008,09,04,09,45,17.10
2008,09,04,09,46,17.10
2008,09,04,09,47,17.10
2008,09,04,09,48,17.10
2008,09,04,09,49,17.10
2008,09,04,09,50,17.20
2008,09,04,09,51,17.20
2008,09,04,09,52,17.20
2008,09,04,09,53,17.20
2008,09,04,09,54,17.20
2008,09,04,09,55,17.20
2008,09,04,09,56,17.20
2008,09,04,09,57,17.30
2008,09,04,09,58,17.30
2008,09,04,09,59,17.40
2008,09,04,10,00,17.40
2008,09,04,10,01,17.50
2008,09,04,10,02,17.50
2008,09,04,10,03,17.60
2008,09,04,10,04,17.70
2008,09,04,10,05,17.70
2008,09,04,10,06,17.80
2008,09,04,10,07,17.90
2008,09,04,10,08,18.00
2008,09,04,10,09,18.00
2008,09,04,10,10,17.90
2008,09,04,10,11,17.80
2008,09,04,10,12,17.70
2008,09,04,10,13,17.70
2008,09,04,10,14,17.70
2008,09,04,10,15,17.70
2008,09,04,10,16,17.70
2008,09,04,10,17,17.70
2008,09,04,10,18,17.80
2008,09,04,10,19,17.70
2008,09,04,10,20,17.70
2008,09,04,10,21,17.70
2008,09,04,10,22,17.80
2008,09,04,10,23,17.80
2008,09,04,10,24,17.90
2008,09,04,10,25,18.00
2008,09,04,10,26,18.00
2008,09,04,10,27,18.10
2008,09,04,10,28,18.10
2008,09,04,10,29,18.20
2008,09,04,10,30,18.20
2008,09,04,10,31,18.10
2008,09,04,10,32,18.00
2008,09,04,10,33,18.00
2008,09,04,10,34,18.00
2008,09,04,10,35,18.00
2008,09,04,10,36,18.00
2008,09,04,10,37,18.00
2008,09,04,10,38,18.00
2008,09,04,10,39,18.00
2008,09,04,10,40,17.90
2008,09,04,10,41,17.90
2008,09,04,10,42,17.90
2008,09,04,10,43,17.90
2008,09,04,10,44,17.90
2008,09,04,10,45,17.90
2008,09,04,10,46,17.90
2008,09,04,10,47,17.90
2008,09,04,10,48,17.90
2008,09,04,10,49,17.80
2008,09,04,10,50,17.70
2008,09,04,10,51,17.50
2008,09,04,10,52,17.40
2008,09,04,10,53,17.30
2008,09,04,10,54,17.20
2008,09,04,10,55,17.30
2008,09,04,10,56,17.30
2008,09,04,10,57,17.30
2008,09,04,10,58,17.30
2008,09,04,10,59,17.30
2008,09,04,11,00,17.30
2008,09,04,11,01,17.40
2008,09,04,11,02,17.40
2008,09,04,11,03,17.50
2008,09,04,11,04,17.50
2008,09,04,11,05,17.50
2008,09,04,11,06,17.50
2008,09,04,11,07,17.50
2008,09,04,11,08,17.50
2008,09,04,11,09,17.50
2008,09,04,11,10,17.40
2008,09,04,11,11,17.30
2008,09,04,11,12,17.30
2008,09,04,11,13,17.20
2008,09,04,11,14,17.30
2008,09,04,11,15,17.30
2008,09,04,11,16,17.40
2008,09,04,11,17,17.50
2008,09,04,11,18,17.50
2008,09,04,11,19,17.60
2008,09,04,11,20,17.60
2008,09,04,11,21,17.60
2008,09,04,11,22,17.60
2008,09,04,11,23,17.70
2008,09,04,11,24,17.80
2008,09,04,11,25,17.90
2008,09,04,11,26,18.00
2008,09,04,11,27,18.10
2008,09,04,11,28,18.10
2008,09,04,11,29,18.10
2008,09,04,11,30,18.00
2008,09,04,11,31,17.90
2008,09,04,11,32,17.80
2008,09,04,11,33,17.80
2008,09,04,11,34,17.90
2008,09,04,11,35,18.00
2008,09,04,11,36,18.10
2008,09,04,11,37,18.10
2008,09,04,11,38,18.20
2008,09,04,11,39,18.20
2008,09,04,11,40,18.20
2008,09,04,11,41,18.20
2008,09,04,11,42,18.10
2008,09,04,11,43,18.00
2008,09,04,11,44,17.90
2008,09,04,11,45,17.80
2008,09,04,11,46,17.90
2008,09,04,11,47,17.90
2008,09,04,11,48,17.90
2008,09,04,11,49,18.00
2008,09,04,11,50,18.00
2008,09,04,11,51,18.00
2008,09,04,11,52,18.00
2008,09,04,11,53,18.00
2008,09,04,11,54,18.10
2008,09,04,11,55,18.10
2008,09,04,11,56,18.10
2008,09,04,11,57,18.10
2008,09,04,11,58,18.20
2008,09,04,11,59,18.30
2008,09,04,12,00,18.40
2008,09,04,12,01,18.40
2008,09,04,12,02,18.40
2008,09,04,12,03,18.40
2008,09,04,12,04,18.40
2008,09,04,12,05,18.40
2008,09,04,12,06,18.40
2008,09,04,12,07,18.30
2008,09,04,12,08,18.20
2008,09,04,12,09,18.20
2008,09,04,12,10,18.20
2008,09,04,12,11,18.20
2008,09,04,12,12,18.30
2008,09,04,12,13,18.30
2008,09,04,12,14,18.40
2008,09,04,12,15,18.40
2008,09,04,12,16,18.50
2008,09,04,12,17,18.50
2008,09,04,12,18,18.40
2008,09,04,12,19,18.40
2008,09,04,12,20,18.40
2008,09,04,12,21,18.40
2008,09,04,12,22,18.30
2008,09,04,12,23,18.20
2008,09,04,12,24,18.20
2008,09,04,12,25,18.10
2008,09,04,12,26,18.00
2008,09,04,12,27,17.90
2008,09,04,12,28,17.80
2008,09,04,12,29,17.90
2008,09,04,12,30,17.90
2008,09,04,12,31,18.00
2008,09,04,12,32,18.10
2008,09,04,12,33,18.10
2008,09,04,12,34,18.20
2008,09,04,12,35,18.20
2008,09,04,12,36,18.20
2008,09,04,12,37,18.30
2008,09,04,12,38,18.40
2008,09,04,12,39,18.50
2008,09,04,12,40,18.60
2008,09,04,12,41,18.70
2008,09,04,12,42,18.80
2008,09,04,12,43,18.90
2008,09,04,12,44,18.90
2008,09,04,12,45,18.90
2008,09,04,12,46,18.90
2008,09,04,12,47,18.90
2008,09,04,12,48,18.90
2008,09,04,12,49,18.90
2008,09,04,12,50,18.90
2008,09,04,12,51,18.90
2008,09,04,12,52,18.90
2008,09,04,12,53,18.90
2008,09,04,12,54,18.90
2008,09,04,12,55,18.90
2008,09,04,12,56,18.90
2008,09,04,12,57,18.80
2008,09,04,12,58,18.80
2008,09,04,12,59,18.70
2008,09,04,13,00,18.70
2008,09,04,13,01,18.70
2008,09,04,13,02,18.60
2008,09,04,13,03,18.50
2008,09,04,13,04,18.40
2008,09,04,13,05,18.30
2008,09,04,13,06,18.20
2008,09,04,13,07,18.20
2008,09,04,13,08,18.20
2008,09,04,13,09,18.30
2008,09,04,13,10,18.30
2008,09,04,13,11,18.30
2008,09,04,13,12,18.30
2008,09,04,13,13,18.30
2008,09,04,13,14,18.20
2008,09,04,13,15,18.10
2008,09,04,13,16,18.10
2008,09,04,13,17,18.20
2008,09,04,13,18,18.20
2008,09,04,13,19,18.20
2008,09,04,13,20,18.20
2008,09,04,13,21,18.20
2008,09,04,13,22,18.20
2008,09,04,13,23,18.20
2008,09,04,13,24,18.20
2008,09,04,13,25,18.20
2008,09,04,13,26,18.20
2008,09,04,13,27,18.20
2008,09,04,13,28,18.20
2008,09,04,13,29,18.20
2008,09,04,13,30,18.30
2008,09,04,13,31,18.30
2008,09,04,13,32,18.30
2008,09,04,13,33,18.30
2008,09,04,13,34,18.30
2008,09,04,13,35,18.30
2008,09,04,13,36,18.30
2008,09,04,13,37,18.30
2008,09,04,13,38,18.30
2008,09,04,13,39,18.40
2008,09,04,13,40,18.40
2008,09,04,13,41,18.50
2008,09,04,13,42,18.60
2008,09,04,13,43,18.70
2008,09,04,13,44,18.70
2008,09,04,13,45,18.80
2008,09,04,13,46,18.80
2008,09,04,13,47,18.80
2008,09,04,13,48,18.90
2008,09,04,13,49,18.80
2008,09,04,13,50,18.80
2008,09,04,13,51,18.80
2008,09,04,13,52,18.70
2008,09,04,13,53,18.60
2008,09,04,13,54,18.50
2008,09,04,13,55,18.50
2008,09,04,13,56,18.60
2008,09,04,13,57,18.70
2008,09,04,13,58,18.70
2008,09,04,13,59,18.70
2008,09,04,14,00,18.70
2008,09,04,14,01,18.70
2008,09,04,14,02,18.80
2008,09,04,14,03,18.80
2008,09,04,14,04,18.90
2008,09,04,14,05,18.90
2008,09,04,14,06,18.90
2008,09,04,14,07,18.90
2008,09,04,14,08,18.90
2008,09,04,14,09,18.90
2008,09,04,14,10,18.90
2008,09,04,14,11,18.90
2008,09,04,14,12,18.90
2008,09,04,14,13,18.90
2008,09,04,14,14,18.90
2008,09,04,14,15,18.80
2008,09,04,14,16,18.80
2008,09,04,14,17,18.70
2008,09,04,14,18,18.60
2008,09,04,14,19,18.60
2008,09,04,14,20,18.70
2008,09,04,14,21,18.70
2008,09,04,14,22,18.80
2008,09,04,14,23,18.80
2008,09,04,14,24,18.80
2008,09,04,14,25,18.70
2008,09,04,14,26,18.50
2008,09,04,14,27,18.40
2008,09,04,14,28,18.40
2008,09,04,14,29,18.30
2008,09,04,14,30,18.30
2008,09,04,14,31,18.30
2008,09,04,14,32,18.30
2008,09,04,14,33,18.30
2008,09,04,14,34,18.30
2008,09,04,14,35,18.30
2008,09,04,14,36,18.30
2008,09,04,14,37,18.30
2008,09,04,14,38,18.40
2008,09,04,14,39,18.40
2008,09,04,14,40,18.50
2008,09,04,14,41,18.60
2008,09,04,14,42,18.70
2008,09,04,14,43,18.70
2008,09,04,14,44,18.60
2008,09,04,14,45,18.60
2008,09,04,14,46,18.60
2008,09,04,14,47,18.60
2008,09,04,14,48,18.60
2008,09,04,14,49,18.60
2008,09,04,14,50,18.60
2008,09,04,14,51,18.60
2008,09,04,14,52,18.70
2008,09,04,14,53,18.70
2008,09,04,14,54,18.80
2008,09,04,14,55,18.90
2008,09,04,14,56,18.90
2008,09,04,14,57,18.80
2008,09,04,14,58,18.80
2008,09,04,14,59,18.90
2008,09,04,15,00,19.00
2008,09,04,15,01,19.00
2008,09,04,15,02,19.10
2008,09,04,15,03,19.10
2008,09,04,15,04,19.00
2008,09,04,15,05,19.00
2008,09,04,15,06,18.90
2008,09,04,15,07,18.80
2008,09,04,15,08,18.80
2008,09,04,15,09,18.60
2008,09,04,15,10,18.60
2008,09,04,15,11,18.70
2008,09,04,15,12,18.70
2008,09,04,15,13,18.60
2008,09,04,15,14,18.70
2008,09,04,15,15,18.80
2008,09,04,15,16,18.90
2008,09,04,15,17,18.90
2008,09,04,15,18,18.90
2008,09,04,15,19,18.90
2008,09,04,15,20,18.80
2008,09,04,15,21,18.80
2008,09,04,15,22,18.80
2008,09,04,15,23,18.80
2008,09,04,15,24,18.90
2008,09,04,15,25,19.00
2008,09,04,15,26,19.10
2008,09,04,15,27,19.10
2008,09,04,15,28,19.10
2008,09,04,15,29,19.10
2008,09,04,15,30,19.00
2008,09,04,15,31,18.90
2008,09,04,15,32,18.90
2008,09,04,15,33,18.90
2008,09,04,15,34,18.90
2008,09,04,15,35,18.90
2008,09,04,15,36,18.90
2008,09,04,15,37,18.90
2008,09,04,15,38,18.80
2008,09,04,15,39,18.80
2008,09,04,15,40,18.80
2008,09,04,15,41,18.80
2008,09,04,15,42,18.80
2008,09,04,15,43,18.70
2008,09,04,15,44,18.70
2008,09,04,15,45,18.70
2008,09,04,15,46,18.60
2008,09,04,15,47,18.60
2008,09,04,15,48,18.60
2008,09,04,15,49,18.60
2008,09,04,15,50,18.50
2008,09,04,15,51,18.40
2008,09,04,15,52,18.30
2008,09,04,15,53,18.30
2008,09,04,15,54,18.20
2008,09,04,15,55,18.20
2008,09,04,15,56,18.20
2008,09,04,15,57,18.10
2008,09,04,15,58,18.10
2008,09,04,15,59,18.00
2008,09,04,16,00,18.00
2008,09,04,16,01,17.90
2008,09,04,16,02,17.80
2008,09,04,16,03,17.80
2008,09,04,16,04,17.80
2008,09,04,16,05,17.80
2008,09,04,16,06,17.80
2008,09,04,16,07,17.80
2008,09,04,16,08,17.80
2008,09,04,16,09,17.80
2008,09,04,16,10,17.80
2008,09,04,16,11,17.90
2008,09,04,16,12,17.90
2008,09,04,16,13,17.90
2008,09,04,16,14,17.80
2008,09,04,16,15,17.80
2008,09,04,16,16,17.90
2008,09,04,16,17,18.00
2008,09,04,16,18,18.10
2008,09,04,16,19,18.20
2008,09,04,16,20,18.30
2008,09,04,16,21,18.40
2008,09,04,16,22,18.50
2008,09,04,16,23,18.50
2008,09,04,16,24,18.50
2008,09,04,16,25,18.50
2008,09,04,16,26,18.50
2008,09,04,16,27,18.60
2008,09,04,16,28,18.60
2008,09,04,16,29,18.70
2008,09,04,16,30,18.80
2008,09,04,16,31,18.80
2008,09,04,16,32,18.90
2008,09,04,16,33,19.00
2008,09,04,16,34,19.10
2008,09,04,16,35,19.20
2008,09,04,16,36,19.20
2008,09,04,16,37,19.30
2008,09,04,16,38,19.30
2008,09,04,16,39,19.30
2008,09,04,16,40,19.30
2008,09,04,16,41,19.30
2008,09,04,16,42,19.30
2008,09,04,16,43,19.30
2008,09,04,16,44,19.30
2008,09,04,16,45,19.30
2008,09,04,16,46,19.30
2008,09,04,16,47,19.30
2008,09,04,16,48,19.30
2008,09,04,16,49,19.30
2008,09,04,16,50,19.30
2008,09,04,16,51,19.20
2008,09,04,16,52,19.20
2008,09,04,16,53,19.20
2008,09,04,16,54,19.20
2008,09,04,16,55,19.20
2008,09,04,16,56,19.20
2008,09,04,16,57,19.20
2008,09,04,16,58,19.30
2008,09,04,16,59,19.30
2008,09,04,17,00,19.30
2008,09,04,17,01,19.30
2008,09,04,17,02,19.30
2008,09,04,17,03,19.20
2008,09,04,17,04,19.30
2008,09,04,17,05,19.30
2008,09,04,17,06,19.30
2008,09,04,17,07,19.30
2008,09,04,17,08,19.30
2008,09,04,17,09,19.30
2008,09,04,17,10,19.30
2008,09,04,17,11,19.30
2008,09,04,17,12,19.30
2008,09,04,17,13,19.30
2008,09,04,17,14,19.30
2008,09,04,17,15,19.30
2008,09,04,17,16,19.30
2008,09,04,17,17,19.30
2008,09,04,17,18,19.30
2008,09,04,17,19,19.40
2008,09,04,17,20,19.40
2008,09,04,17,21,19.40
2008,09,04,17,22,19.40
2008,09,04,17,23,19.40